This is the latest recevied weather packets stored in our database for station/object KC5TIL. If no packets are shown the sender has not sent any weather packets the latest 10 day(s).
| Time | Temp. | Humidity | Pressure | Rain* | Wind** | Luminosity | Snow |
|---|---|---|---|---|---|---|---|
| 1788356441 | 29.44° C | 67% | 1017.1 hPa | 0 mm | - | 150 W/m² | - |
| 1788356135 | 29.44° C | 67% | 1017.1 hPa | 0 mm | - | 132 W/m² | - |
| 1788355830 | 29.44° C | 68% | 1017 hPa | 0 mm | - | 115 W/m² | - |
| 1788355525 | 29.44° C | 69% | 1017.4 hPa | 0 mm | - | 92 W/m² | - |
| 1788355221 | 29.44° C | 69% | 1016.9 hPa | 0 mm | - | 59 W/m² | - |
| 1788354917 | 28.89° C | 69% | 1016.8 hPa | 0 mm | - | 54 W/m² | - |
| 1788354632 | 28.89° C | 70% | 1017.1 hPa | 0 mm | - | 50 W/m² | - |
| 1788354312 | 28.89° C | 70% | 1016.9 hPa | 0 mm | - | 46 W/m² | - |
| 1788354008 | 28.33° C | 71% | 1016.8 hPa | 0 mm | - | 42 W/m² | - |
| 1788353703 | 28.33° C | 70% | 1016.8 hPa | 0 mm | - | 38 W/m² | - |
| 1788353398 | 27.78° C | 72% | 1016.9 hPa | 0 mm | - | 34 W/m² | - |
| 1788353095 | 27.22° C | 73% | 1016.9 hPa | 0 mm | - | 30 W/m² | - |
| 1788352789 | 27.22° C | 74% | 1016.7 hPa | 0 mm | - | 25 W/m² | - |
| 1788352486 | 26.67° C | 74% | 1016.7 hPa | 0 mm | - | 19 W/m² | - |
| 1788352184 | 26.67° C | 75% | 1016.4 hPa | 0 mm | - | 16 W/m² | - |
| 1788351880 | 26.67° C | 75% | 1016.6 hPa | 0 mm | - | 13 W/m² | - |
| 1788351576 | 26.67° C | 75% | 1016.5 hPa | 0 mm | - | 10 W/m² | - |
| 1788351276 | 26.67° C | 76% | 1016.3 hPa | 0 mm | - | 6 W/m² | - |
| 1788350970 | 26.67° C | 77% | 1016.5 hPa | 0 mm | - | 4 W/m² | - |
| 1788350667 | 26.67° C | 77% | 1016.6 hPa | 0 mm | - | 1 W/m² | - |
| 1788350366 | 26.67° C | 76% | 1016.4 hPa | 0 mm | - | 0 W/m² | - |
| 1788350062 | 26.67° C | 76% | 1016.5 hPa | 0 mm | - | 0 W/m² | - |
| 1788349759 | 26.67° C | 76% | 1016.5 hPa | 0 mm | - | 0 W/m² | - |
| 1788349454 | 26.67° C | 76% | 1016.6 hPa | 0 mm | - | 0 W/m² | - |
| 1788349149 | 26.67° C | 76% | 1016.6 hPa | 0 mm | - | 0 W/m² | - |
* Rain latest hour (hover to see other rain measurements)
** Current wind speed in m/s (hover to see current wind gust speed)